Rome, GA

1:39 AM EST on February 21, 2017 (GMT -0500)
Russell

Weather History for KRMG - February, 2014

Change the Weather History Date:

Friday, February 28, 2014

  Actual Average Record
Temperature  
Mean Temperature 38 °F 48 °F  
Max Temperature 56 °F 60 °F 79 °F (2011)
Min Temperature 20 °F 36 °F 14 °F (2002)
Degree Days  
Heating Degree Days 27 18  
Month to date heating degree days 593 580  
Since 1 July heating degree days 2827 2622  
Moisture  
Dew Point 18 °F    
Average Humidity 50    
Maximum Humidity 81    
Minimum Humidity 19    
Precipitation  
Precipitation 0.01 in 0.20 in 0.86 in (2011)
Month to date precipitation 4.39 4.87  
Year to date precipitation 7.68 9.69  
Sea Level Pressure  
Sea Level Pressure 30.10 in    
Wind  
Wind Speed 4 mph (ESE)    
Max Wind Speed 39 mph    
Max Gust Speed 49 mph    
Visibility 10 miles    
Events      
T = Trace of Precipitation, MM = Missing Value Source: NWS Daily Summary

Daily Weather History Graph

Daily Weather History Graph

Search for Another Location

Airport or City:

Trip Planner

Search our weather history database for the weather conditions in past years. The results will help you decide how hot, cold, wet, or windy it might be!

Date:

Astronomy

Feb. 28, 2014 Rise Set
Actual Time 7:10 AM EST 6:35 PM EST
Civil Twilight 6:45 AM EST 7:01 PM EST
Nautical Twilight 6:16 AM EST 7:30 PM EST
Astronomical Twilight 5:47 AM EST 7:59 PM EST
Moon 6:24 AM EST (2/28) 6:11 PM EST (2/28)
Length of Visible Light 12h 15m
Length of Day
11h 25m
Waning Crescent, 1% of the Moon is Illuminated
Feb 28
Waning Crescent
Mar 1
New
Mar 8
First Quarter
Mar 16
Full
Mar 23
Last Quarter

Hourly Weather History & Observations

Time (EST) Temp. Windchill Dew Point Humidity Pressure Visibility Wind Dir Wind Speed Gust Speed Precip Events Conditions
12:53 AM 32.0 °F 26.4 °F 15.1 °F 50% 30.04 in 10.0 mi NNW 5.8 mph - N/A   Clear
1:53 AM 27.0 °F - 17.1 °F 66% 30.05 in 10.0 mi Calm Calm - N/A   Clear
2:53 AM 27.0 °F 23.0 °F 17.1 °F 66% 30.04 in 10.0 mi North 3.5 mph - N/A   Clear
3:53 AM 26.1 °F - 15.1 °F 63% 30.04 in 10.0 mi Calm Calm - N/A   Clear
4:53 AM 23.0 °F - 16.0 °F 74% 30.06 in 8.0 mi Calm Calm - N/A   Clear
5:53 AM 25.0 °F - 15.1 °F 66% 30.09 in 10.0 mi Calm Calm - N/A   Clear
6:53 AM 23.0 °F - 18.0 °F 81% 30.12 in 10.0 mi Calm Calm - N/A   Clear
7:53 AM 24.1 °F - 18.0 °F 77% 30.14 in 10.0 mi Calm Calm - N/A   Clear
8:53 AM 32.0 °F 28.7 °F 18.0 °F 56% 30.17 in 10.0 mi NE 3.5 mph - N/A   Clear
9:53 AM 37.9 °F 34.4 °F 18.0 °F 45% 30.17 in 10.0 mi Variable 4.6 mph - N/A   Clear
10:53 AM 44.1 °F 41.5 °F 17.1 °F 34% 30.15 in 10.0 mi East 4.6 mph - N/A   Clear
11:53 AM 48.0 °F - 14.0 °F 26% 30.14 in 10.0 mi East 10.4 mph - N/A   Clear
12:53 PM 51.1 °F - 15.1 °F 24% 30.11 in 10.0 mi Variable 3.5 mph - N/A   Clear
1:53 PM 53.1 °F - 15.1 °F 22% 30.08 in 10.0 mi Variable 5.8 mph - N/A   Clear
2:53 PM 55.0 °F - 14.0 °F 20% 30.07 in 10.0 mi ESE 6.9 mph - N/A   Clear
3:53 PM 55.0 °F - 15.1 °F 21% 30.08 in 10.0 mi ESE 5.8 mph - N/A   Mostly Cloudy
4:53 PM 55.0 °F - 17.1 °F 23% 30.06 in 10.0 mi SE 6.9 mph - N/A   Overcast
5:53 PM 54.0 °F - 18.0 °F 24% 30.07 in 10.0 mi SE 8.1 mph - N/A   Overcast
6:53 PM 52.0 °F - 19.0 °F 27% 30.08 in 10.0 mi SSE 5.8 mph - N/A   Overcast
7:53 PM 50.0 °F - 21.0 °F 32% 30.09 in 10.0 mi Calm Calm - N/A   Overcast
8:53 PM 48.9 °F - 21.9 °F 35% 30.11 in 10.0 mi ESE 3.5 mph - N/A   Overcast
9:53 PM 48.9 °F - 21.9 °F 35% 30.10 in 10.0 mi ESE 5.8 mph - N/A   Overcast
10:53 PM 50.0 °F - 21.9 °F 33% 30.14 in 10.0 mi South 3.5 mph - N/A   Overcast
11:53 PM 44.1 °F - 37.0 °F 76% 30.15 in 10.0 mi Calm Calm - 0.01 in   Overcast